TimeEST,TemperatureF,Dew PointF,Humidity,Sea Level PressureIn,VisibilityMPH,Wind Direction,Wind SpeedMPH,Gust SpeedMPH,PrecipitationIn,Events,Conditions,WindDirDegrees,DateUTC
12:15 AM,25.5,17.6,72,30.08,10.0,Calm,Calm,-,N/A,,Clear,0,2012-11-25 05:15:00
12:35 AM,25.7,19.0,76,30.06,10.0,West,3.5,-,N/A,,Clear,260,2012-11-25 05:35:00
12:55 AM,24.1,19.0,81,30.07,10.0,Calm,Calm,-,N/A,,Clear,0,2012-11-25 05:55:00
1:15 AM,24.6,18.9,79,30.07,10.0,Calm,Calm,-,N/A,,Clear,0,2012-11-25 06:15:00
1:35 AM,24.4,18.3,78,30.07,10.0,Calm,Calm,-,N/A,,Clear,0,2012-11-25 06:35:00
1:55 AM,23.7,18.3,80,30.08,10.0,Calm,Calm,-,N/A,,Clear,0,2012-11-25 06:55:00
2:15 AM,25.2,18.9,77,30.08,10.0,Calm,Calm,-,N/A,,Clear,0,2012-11-25 07:15:00
2:35 AM,24.6,18.3,77,30.08,10.0,Calm,Calm,-,N/A,,Clear,0,2012-11-25 07:35:00
2:55 AM,23.4,18.5,82,30.08,10.0,Calm,Calm,-,N/A,,Clear,0,2012-11-25 07:55:00
3:15 AM,23.9,17.6,77,30.08,10.0,SW,3.5,-,N/A,,Clear,230,2012-11-25 08:15:00
3:35 AM,25.3,18.0,74,30.09,10.0,SW,3.5,-,N/A,,Clear,220,2012-11-25 08:35:00
3:55 AM,25.7,18.0,73,30.08,10.0,SW,3.5,-,N/A,,Clear,230,2012-11-25 08:55:00
4:15 AM,26.4,17.8,70,30.08,10.0,SW,4.6,-,N/A,,Clear,230,2012-11-25 09:15:00
4:35 AM,28.0,18.1,66,30.08,10.0,SW,4.6,-,N/A,,Clear,230,2012-11-25 09:35:00
4:55 AM,27.5,18.3,68,30.08,10.0,WSW,3.5,-,N/A,,Clear,240,2012-11-25 09:55:00
5:15 AM,27.9,19.2,70,30.08,10.0,Calm,Calm,-,N/A,,Clear,0,2012-11-25 10:15:00
5:35 AM,28.0,18.9,68,30.10,10.0,SW,4.6,-,N/A,,Clear,230,2012-11-25 10:35:00
5:55 AM,28.2,18.5,67,30.09,10.0,Calm,Calm,-,N/A,,Clear,0,2012-11-25 10:55:00
6:15 AM,27.7,17.8,66,30.09,10.0,Calm,Calm,-,N/A,,Clear,0,2012-11-25 11:15:00
6:35 AM,26.2,18.7,73,30.10,10.0,SW,3.5,-,N/A,,Clear,230,2012-11-25 11:35:00
6:55 AM,27.1,18.3,69,30.11,10.0,SW,3.5,-,N/A,,Clear,230,2012-11-25 11:55:00
7:15 AM,27.3,18.5,69,30.11,10.0,WSW,3.5,-,N/A,,Clear,240,2012-11-25 12:15:00
7:35 AM,27.5,18.9,70,30.11,10.0,SW,3.5,-,N/A,,Clear,230,2012-11-25 12:35:00
7:55 AM,30.0,20.3,67,30.11,10.0,SW,3.5,-,N/A,,Clear,230,2012-11-25 12:55:00
8:15 AM,30.6,19.9,65,30.12,10.0,WSW,5.8,-,N/A,,Clear,250,2012-11-25 13:15:00
8:35 AM,32.9,20.1,59,30.12,10.0,WSW,5.8,-,N/A,,Clear,250,2012-11-25 13:35:00
8:55 AM,35.8,20.3,53,30.12,10.0,SW,4.6,-,N/A,,Clear,220,2012-11-25 13:55:00
9:15 AM,35.6,19.2,51,30.10,10.0,South,5.8,-,N/A,,Clear,190,2012-11-25 14:15:00
9:35 AM,37.6,19.4,48,30.12,10.0,SW,4.6,-,N/A,,Clear,230,2012-11-25 14:35:00
9:55 AM,39.2,18.5,43,30.10,10.0,SW,6.9,-,N/A,,Clear,220,2012-11-25 14:55:00
10:15 AM,40.1,18.3,42,30.10,10.0,SSW,8.1,-,N/A,,Scattered Clouds,200,2012-11-25 15:15:00
10:35 AM,41.2,17.4,38,30.10,10.0,SSW,9.2,-,N/A,,Clear,200,2012-11-25 15:35:00
10:55 AM,42.8,17.4,36,30.10,10.0,SW,12.7,-,N/A,,Clear,230,2012-11-25 15:55:00
11:15 AM,43.9,18.3,36,30.08,10.0,SW,8.1,-,N/A,,Clear,230,2012-11-25 16:15:00
11:35 AM,42.8,16.3,34,30.06,10.0,SSW,8.1,-,N/A,,Clear,200,2012-11-25 16:35:00
11:55 AM,44.6,16.9,33,30.05,10.0,SSW,8.1,-,N/A,,Clear,210,2012-11-25 16:55:00
12:15 PM,45.3,16.2,31,30.03,10.0,SW,12.7,16.1,N/A,,Clear,220,2012-11-25 17:15:00
12:35 PM,45.5,16.0,31,30.02,10.0,WSW,11.5,16.1,N/A,,Clear,240,2012-11-25 17:35:00
12:55 PM,46.2,17.2,31,30.01,10.0,SSW,5.8,-,N/A,,Clear,210,2012-11-25 17:55:00
1:15 PM,46.4,16.3,30,30.02,10.0,SW,10.4,-,N/A,,Clear,230,2012-11-25 18:15:00
1:35 PM,46.8,16.2,29,30.01,10.0,WSW,9.2,-,N/A,,Clear,240,2012-11-25 18:35:00
1:55 PM,47.7,16.7,29,30.00,10.0,WSW,8.1,-,N/A,,Scattered Clouds,240,2012-11-25 18:55:00
2:15 PM,47.8,16.7,29,29.99,10.0,WSW,6.9,-,N/A,,Scattered Clouds,250,2012-11-25 19:15:00
2:35 PM,47.3,16.7,30,29.99,10.0,SW,6.9,-,N/A,,Scattered Clouds,230,2012-11-25 19:35:00
2:55 PM,47.8,16.3,28,29.98,10.0,SW,5.8,-,N/A,,Scattered Clouds,230,2012-11-25 19:55:00
3:15 PM,47.3,16.3,29,29.99,10.0,SW,5.8,-,N/A,,Scattered Clouds,220,2012-11-25 20:15:00
3:35 PM,47.3,16.3,29,29.98,10.0,South,5.8,-,N/A,,Clear,180,2012-11-25 20:35:00
3:55 PM,46.8,16.2,29,29.97,10.0,South,4.6,-,N/A,,Clear,190,2012-11-25 20:55:00
4:15 PM,46.0,16.5,31,29.97,10.0,South,6.9,-,N/A,,Clear,190,2012-11-25 21:15:00
4:35 PM,44.6,16.7,33,29.98,10.0,SSW,4.6,-,N/A,,Clear,210,2012-11-25 21:35:00
4:55 PM,43.5,16.7,34,29.98,10.0,SSW,4.6,-,N/A,,Clear,200,2012-11-25 21:55:00
5:15 PM,42.8,16.5,35,29.98,10.0,South,3.5,-,N/A,,Clear,180,2012-11-25 22:15:00
5:35 PM,40.6,17.6,39,29.98,10.0,South,3.5,-,N/A,,Clear,180,2012-11-25 22:35:00
5:55 PM,39.4,18.5,43,29.99,10.0,South,3.5,-,N/A,,Clear,170,2012-11-25 22:55:00
6:15 PM,39.2,18.3,43,29.99,10.0,Calm,Calm,-,N/A,,Clear,0,2012-11-25 23:15:00
6:35 PM,37.8,19.4,48,29.99,10.0,South,3.5,-,N/A,,Clear,170,2012-11-25 23:35:00
6:55 PM,37.6,19.4,48,29.99,10.0,South,3.5,-,N/A,,Clear,180,2012-11-25 23:55:00
7:15 PM,37.0,19.8,50,29.99,10.0,South,4.6,-,N/A,,Clear,180,2012-11-26 00:15:00
7:35 PM,38.3,19.4,47,29.99,10.0,South,3.5,-,N/A,,Clear,180,2012-11-26 00:35:00
7:55 PM,38.1,19.2,47,29.99,10.0,South,4.6,-,N/A,,Clear,180,2012-11-26 00:55:00
8:15 PM,38.1,19.0,46,30.00,10.0,South,4.6,-,N/A,,Clear,180,2012-11-26 01:15:00
8:35 PM,38.3,18.9,46,30.00,10.0,South,4.6,-,N/A,,Clear,180,2012-11-26 01:35:00
8:55 PM,39.0,19.0,45,30.00,10.0,South,4.6,-,N/A,,Clear,190,2012-11-26 01:55:00
9:15 PM,39.9,19.0,43,30.00,10.0,South,6.9,-,N/A,,Clear,190,2012-11-26 02:15:00
9:35 PM,40.1,19.0,43,30.00,10.0,South,6.9,-,N/A,,Clear,190,2012-11-26 02:35:00
9:55 PM,39.9,19.2,43,30.01,10.0,SSW,5.8,-,N/A,,Clear,200,2012-11-26 02:55:00
10:15 PM,39.9,19.4,44,30.00,10.0,South,4.6,-,N/A,,Clear,180,2012-11-26 03:15:00
10:35 PM,39.2,19.4,45,30.00,10.0,SSW,3.5,-,N/A,,Clear,200,2012-11-26 03:35:00
10:55 PM,39.2,20.1,46,30.00,10.0,SSW,4.6,-,N/A,,Clear,200,2012-11-26 03:55:00
11:15 PM,39.9,20.3,45,30.01,10.0,SSW,4.6,-,N/A,,Clear,200,2012-11-26 04:15:00
11:35 PM,40.5,20.3,45,30.01,10.0,South,4.6,-,N/A,,Clear,190,2012-11-26 04:35:00
11:55 PM,40.3,20.5,45,30.01,10.0,SSW,5.8,-,N/A,,Clear,200,2012-11-26 04:55:00